Worthington, MN

1:13 AM CST on November 18, 2017 (GMT -0600)
Worthington Municipal

Weather History for KOTG - May, 2013

Change the Weather History Date:

Wednesday, May 1, 2013

  Actual Average Record
Temperature  
Mean Temperature 40 °F -  
Max Temperature 51 °F 61 °F 90 °F (1992)
Min Temperature 30 °F 40 °F 27 °F (1984)
Degree Days  
Heating Degree Days 24    
Moisture  
Dew Point 28 °F    
Average Humidity 71    
Maximum Humidity 87    
Minimum Humidity 47    
Precipitation  
Precipitation 0.56 in - - ()
Sea Level Pressure  
Sea Level Pressure 30.31 in    
Wind  
Wind Speed 17 mph (North)    
Max Wind Speed 26 mph    
Max Gust Speed 32 mph    
Visibility 8 miles    
Events      
Averages and records for this station are not official NWS values.
T = Trace of Precipitation, MM = Missing Value Source: NWS Daily Summary

Daily Weather History Graph

Daily Weather History Graph

Search for Another Location

Airport or City:

Trip Planner

Search our weather history database for the weather conditions in past years. The results will help you decide how hot, cold, wet, or windy it might be!

Date:

Astronomy

May. 01, 2013 Rise Set
Actual Time 6:14 AM CDT 8:25 PM CDT
Civil Twilight 5:42 AM CDT 8:56 PM CDT
Nautical Twilight 5:04 AM CDT 9:35 PM CDT
Astronomical Twilight 4:21 AM CDT 10:18 PM CDT
Moon 1:35 AM CDT (5/1) 11:53 AM CDT (5/1)
Length of Visible Light 15h 13m
Length of Day
14h 10m
Waning Gibbous, 59% of the Moon is Illuminated
May 1
Waning Gibbous
May 2
Last Quarter
May 9
New
May 17
First Quarter
May 24
Full

Hourly Weather History & Observations

Time (CDT) Temp. Windchill Dew Point Humidity Pressure Visibility Wind Dir Wind Speed Gust Speed Precip Events Conditions
12:15 AM 51.8 °F - 32.0 °F 47% 30.02 in 10.0 mi NNW 16.1 mph - N/A   Mostly Cloudy
12:35 AM 50.0 °F - 32.0 °F 50% 30.08 in 10.0 mi NNW 11.5 mph - N/A   Overcast
12:55 AM 48.2 °F - 32.0 °F 54% 30.08 in 10.0 mi North 20.7 mph 24.2 mph N/A   Mostly Cloudy
1:15 AM 48.2 °F - 30.2 °F 50% 30.08 in 10.0 mi North 16.1 mph - N/A   Overcast
1:35 AM 48.2 °F - 30.2 °F 50% 30.08 in 10.0 mi NNW 16.1 mph - N/A   Mostly Cloudy
1:55 AM 48.2 °F - 30.2 °F 50% 30.10 in 10.0 mi North 19.6 mph 25.3 mph N/A   Mostly Cloudy
2:15 AM 46.4 °F 39.8 °F 33.8 °F 62% 30.10 in 10.0 mi North 16.1 mph - 0.02 in   Overcast
2:35 AM 44.6 °F 37.2 °F 35.6 °F 71% 30.10 in 10.0 mi North 17.3 mph 20.7 mph 0.06 in   Overcast
3:15 AM 42.8 °F 35.8 °F 35.6 °F 76% 30.11 in 10.0 mi North 13.8 mph - 0.05 in   Overcast
3:35 AM 41.0 °F 33.9 °F 35.6 °F 81% 30.12 in 10.0 mi North 12.7 mph - 0.09 in   Overcast
3:55 AM 39.2 °F 30.8 °F 33.8 °F 81% 30.12 in 10.0 mi NNE 15.0 mph - 0.15 in   Overcast
4:15 AM 39.2 °F 31.2 °F 33.8 °F 81% 30.14 in 10.0 mi North 13.8 mph - 0.04 in   Overcast
4:35 AM 37.4 °F 29.3 °F 30.2 °F 75% 30.16 in 10.0 mi North 12.7 mph 21.9 mph 0.06 in   Overcast
4:55 AM 35.6 °F 25.9 °F 30.2 °F 81% 30.18 in 9.0 mi North 16.1 mph - 0.08 in   Overcast
5:15 AM 35.6 °F 26.6 °F 30.2 °F 81% 30.18 in 10.0 mi North 13.8 mph 17.3 mph 0.01 in   Overcast
5:35 AM 37.4 °F 28.5 °F 30.2 °F 75% 30.20 in 10.0 mi North 15.0 mph - 0.01 in   Overcast
5:55 AM 33.8 °F 24.8 °F 28.4 °F 81% 30.24 in 3.0 mi NNW 12.7 mph - 0.05 in   Overcast
6:15 AM 33.8 °F 24.3 °F 28.4 °F 81% 30.24 in 1.8 mi NNW 13.8 mph - 0.05 in   Overcast
6:35 AM 33.8 °F 21.9 °F 28.4 °F 81% 30.23 in 0.5 mi NNW 21.9 mph 32.2 mph 0.07 in   Overcast
6:55 AM 33.8 °F 22.2 °F 28.4 °F 81% 30.25 in 0.5 mi NNW 20.7 mph - 0.10 in   Overcast
7:15 AM 33.8 °F 22.8 °F 28.4 °F 81% 30.27 in 1.2 mi NNW 18.4 mph - 0.01 in   Overcast
7:35 AM 33.8 °F 22.8 °F 28.4 °F 81% 30.25 in 0.5 mi North 18.4 mph - 0.01 in   Overcast
8:15 AM 33.8 °F 22.8 °F 28.4 °F 81% 30.29 in 0.8 mi North 18.4 mph - 0.01 in   Overcast
8:35 AM 33.8 °F 22.5 °F 28.4 °F 81% 30.27 in 1.0 mi North 19.6 mph - 0.01 in   Overcast
8:55 AM 33.8 °F 22.5 °F 28.4 °F 81% 30.28 in 0.8 mi North 19.6 mph - 0.02 in   Overcast
9:15 AM 32.0 °F 19.5 °F 28.4 °F 87% 30.28 in 0.5 mi North 21.9 mph - N/A   Overcast
9:35 AM 30.2 °F 16.2 °F 26.6 °F 86% 30.29 in 1.0 mi NNW 25.3 mph - N/A   Overcast
9:55 AM 30.2 °F 17.4 °F 26.6 °F 86% 30.31 in 1.2 mi NNW 20.7 mph - 0.01 in   Overcast
10:15 AM 30.2 °F 16.2 °F 26.6 °F 86% 30.31 in 4.0 mi North 25.3 mph - 0.02 in   Overcast
10:35 AM 30.2 °F 15.9 °F 26.6 °F 86% 30.30 in 3.0 mi NNW 26.5 mph 29.9 mph 0.05 in   Overcast
11:15 AM 30.2 °F 16.5 °F 26.6 °F 86% 30.31 in 2.0 mi North 24.2 mph 29.9 mph 0.01 in   Overcast
11:35 AM 30.2 °F 17.4 °F 24.8 °F 80% 30.32 in 10.0 mi North 20.7 mph - 0.01 in   Overcast
11:55 AM 32.0 °F 19.5 °F 24.8 °F 75% 30.32 in 10.0 mi North 21.9 mph - 0.01 in   Overcast
12:15 PM 32.0 °F 19.8 °F 24.8 °F 75% 30.33 in 10.0 mi North 20.7 mph - N/A   Overcast
12:35 PM 32.0 °F 19.2 °F 24.8 °F 75% 30.33 in 10.0 mi North 23.0 mph - N/A   Overcast
12:55 PM 33.8 °F 22.2 °F 24.8 °F 70% 30.35 in 10.0 mi North 20.7 mph - N/A   Overcast
1:15 PM 33.8 °F 23.2 °F 24.8 °F 70% 30.35 in 10.0 mi North 17.3 mph - N/A   Overcast
1:35 PM 33.8 °F 22.2 °F 24.8 °F 70% 30.35 in 10.0 mi North 20.7 mph - N/A   Overcast
1:55 PM 33.8 °F 22.5 °F 24.8 °F 70% 30.36 in 10.0 mi North 19.6 mph - N/A   Overcast
2:15 PM 33.8 °F 22.8 °F 24.8 °F 70% 30.35 in 10.0 mi North 18.4 mph - 0.01 in   Overcast
2:35 PM 33.8 °F 22.8 °F 24.8 °F 70% 30.36 in 10.0 mi North 18.4 mph - 0.01 in   Overcast
3:15 PM 35.6 °F 26.2 °F 24.8 °F 65% 30.38 in 10.0 mi North 15.0 mph - 0.01 in   Mostly Cloudy
3:35 PM 35.6 °F 26.2 °F 24.8 °F 65% 30.38 in 10.0 mi North 15.0 mph - 0.01 in   Overcast
3:55 PM 35.6 °F 26.2 °F 26.6 °F 70% 30.40 in 10.0 mi North 15.0 mph - 0.01 in   Overcast
4:15 PM 35.6 °F 26.6 °F 26.6 °F 70% 30.39 in 10.0 mi North 13.8 mph - N/A   Overcast
4:35 PM 35.6 °F 27.1 °F 24.8 °F 65% 30.40 in 10.0 mi North 12.7 mph - N/A   Mostly Cloudy
4:55 PM 37.4 °F 28.9 °F 24.8 °F 60% 30.40 in 10.0 mi North 13.8 mph - N/A   Mostly Cloudy
5:15 PM 37.4 °F 29.3 °F 26.6 °F 65% 30.42 in 10.0 mi North 12.7 mph - N/A   Scattered Clouds
5:35 PM 35.6 °F 27.1 °F 26.6 °F 70% 30.42 in 10.0 mi North 12.7 mph - N/A   Mostly Cloudy
5:55 PM 37.4 °F 27.8 °F 26.6 °F 65% 30.42 in 10.0 mi North 17.3 mph - N/A   Overcast
6:15 PM 37.4 °F 27.8 °F 24.8 °F 60% 30.43 in 10.0 mi North 17.3 mph - N/A   Mostly Cloudy
6:35 PM 35.6 °F 25.2 °F 26.6 °F 70% 30.43 in 10.0 mi North 18.4 mph - N/A   Mostly Cloudy
6:55 PM 37.4 °F 26.9 °F 24.8 °F 60% 30.43 in 10.0 mi North 20.7 mph 25.3 mph N/A   Mostly Cloudy
7:15 PM 37.4 °F 27.2 °F 24.8 °F 60% 30.43 in 10.0 mi North 19.6 mph 25.3 mph N/A   Mostly Cloudy
7:35 PM 35.6 °F 25.5 °F 26.6 °F 70% 30.45 in 10.0 mi North 17.3 mph - N/A   Mostly Cloudy
7:55 PM 35.6 °F 27.1 °F 26.6 °F 70% 30.45 in 10.0 mi North 12.7 mph - N/A   Scattered Clouds
8:35 PM 35.6 °F 26.2 °F 26.6 °F 70% 30.45 in 10.0 mi North 15.0 mph - N/A   Partly Cloudy
8:55 PM 35.6 °F 25.5 °F 26.6 °F 70% 30.45 in 10.0 mi North 17.3 mph - N/A   Partly Cloudy
9:35 PM 35.6 °F 24.8 °F 26.6 °F 70% 30.46 in 10.0 mi North 19.6 mph - N/A   Mostly Cloudy
9:55 PM 37.4 °F 27.2 °F 26.6 °F 65% 30.46 in 10.0 mi North 19.6 mph 26.5 mph N/A   Scattered Clouds
10:15 PM 35.6 °F 25.9 °F 26.6 °F 70% 30.46 in 10.0 mi North 16.1 mph - N/A   Scattered Clouds
10:35 PM 35.6 °F 24.5 °F 26.6 °F 70% 30.45 in 10.0 mi North 20.7 mph 24.2 mph N/A   Partly Cloudy
10:55 PM 35.6 °F 24.8 °F 24.8 °F 65% 30.46 in 10.0 mi North 19.6 mph - N/A   Scattered Clouds
11:15 PM 35.6 °F 25.9 °F 26.6 °F 70% 30.48 in 10.0 mi North 16.1 mph - N/A   Clear
11:35 PM 35.6 °F 25.5 °F 26.6 °F 70% 30.48 in 10.0 mi North 17.3 mph - N/A   Clear
11:55 PM 35.6 °F 25.5 °F 26.6 °F 70% 30.47 in 10.0 mi North 17.3 mph - N/A   Partly Cloudy